星链-2754 (STARLINK-2754 )

导读

STARLINK-2754是美国太空探索技术公司(SpaceX)星链(Starlink)计划的卫星,于2021年5月26日发射入轨,属于星链星座组网卫星,旨在为全球提供低延迟、高速率的卫星互联网服务,尤其服务偏远地区等地面网络覆盖不足区域,是SpaceX大规模低轨卫星互联网建设中的一员。

基本信息
目录编号:
48641
目录名称:
STARLINK-2754
国际标识:
2021-044D
轨道中心:
EARTH
卫星名称:
星链-2754
卫星全名:
星链-2754 (STARLINK-2754 )
卫星状态:
在轨 (已飞行1849 天)
发射日期:
2021-05-26 UTC
国别 :
美国 (US)
星等 :
--
轨道信息
数据来源 国际轨道数据
星历时间: 2026-06-18T06:28:51+0800
16小时前
查看轨道信息
半长轴: 6848.884km
偏心率: 0.0001412
轨道倾角: 53.162°
近地点辐角 77.418°
升交点赤经 7.726°
平近点角 282.698°
近地点: 469.779km
远地点: 471.715km
周期: 94.013分钟
每日圈数: 15.316977
详细信息
固有亮度:
5
最大亮度:
2.5
卫星平台:
Starlink V1.0
覆盖范围:
全球
运营商:
太空探索技术公司
运营商所在国:
美国
制造商(研发单位):
太空探索技术公司
制造商所在国:
美国
使用方式:
暂无
卫星简介
星链(Starlink)计划是由太空探索技术公司(SpaceX)提出的一个巨型低轨卫星互联网星座项目,计划在2019年至2024年间在太空搭建由约1.2万颗卫星组成的“星链”网络,其中1584颗将部署在地球上空550千米处的近地轨道,并从2020年开始工作。该卫星仍在工作。
2D轨道图
3D轨道图
轨道高度分析图
轨道倾角分析图
轨道综合分析图
查看轨道综合分析图